Location: Arroyo de Valdeoliva
(40.1604°N, 4.9878°W)
Time: 20:19:22
(UTC+00:00)

ARIANE 5 R/B - Pass Details

Date: 11 December 2025
Orbit: 747 x 792 km, 98.8° (Epoch: 11 January)

Event Time Altitude Azimuth Distance (km) Brightness Sun altitude
Rises 17:15:50 0° 142° (SE) 3,202 5.6 -4.5°
Reaches altitude 10° 17:18:15 10° 134° (SE) 2,288 4.8 -4.9°
Maximum altitude 17:22:49 36° 68° (ENE) 1,203 3.1 -5.7°
Drops below altitude 10° 17:27:28 10° 3° (N) 2,328 4.7 -6.5°
Sets 17:29:57 0° 356° (N) 3,267 5.6 -6.9°
